This demonstration page uses our WeatherBlox Daily Observations layout. Learn more.

Left ArrowRight Arrow

Hourly Observations for June 13, 2021

Temp ( °F °C ) Dew Point ( °F °C ) Humidity (%) Winds ( mph kmh ) Pressure ( in mb ) Visibility ( mi km ) Precip ( " mm )
12:53 am 00:53 Clear 74 23.3 54 12.2 50 50 NNE 3 6 29.79 1009 10 16 0.00 0.00
1:53 am 01:53 Clear 73 22.8 53 11.7 50 50 Calm 29.79 1009 10 16 0.00 0.00
2:53 am 02:53 Clear 71 21.7 53 11.7 53 53 Calm 29.80 1009 10 16 0.00 0.00
3:53 am 03:53 Clear 69 20.6 54 12.2 59 59 Calm 29.79 1009 10 16 0.00 0.00
4:53 am 04:53 Clear 67 19.4 54 12.2 63 63 NE 3 6 29.81 1010 10 16 0.00 0.00
5:53 am 05:53 Sunny 66 18.9 54 12.2 65 65 Calm 29.82 1010 10 16 0.00 0.00
6:53 am 06:53 Sunny 69 20.6 55 12.8 61 61 NNE 3 6 29.83 1010 10 16 0.00 0.00
7:53 am 07:53 Sunny 73 22.8 58 14.4 59 59 VRB 5 7 29.85 1011 10 16 0.00 0.00
8:53 am 08:53 Sunny 74 23.3 58 14.4 57 57 SSE 6 9 29.85 1011 10 16 0.00 0.00
9:53 am 09:53 Sunny 78 25.6 57 13.9 48 48 SSE 8 13 29.84 1010 10 16 0.00 0.00
10:53 am 10:53 Sunny 81 27.2 57 13.9 44 44 VRB 5 7 29.83 1010 10 16 0.00 0.00
11:53 am 11:53 Sunny 86 30 53 11.7 32 32 SE 16 26 29.82 1010 10 16 0.00 0.00
12:53 pm 12:53 Sunny 89 31.7 51 10.6 27 27 SSW 13 20 29.80 1009 10 16 0.00 0.00
1:53 pm 13:53 Sunny 92 33.3 48 8.9 22 22 S 21 33 29.78 1009 10 16 0.00 0.00
2:53 pm 14:53 Sunny 92 33.3 47 8.3 21 21 S 17 28 29.77 1008 10 16 0.00 0.00
3:53 pm 15:53 Sunny 93 33.9 47 8.3 21 21 S 17 28 29.75 1008 10 16 0.00 0.00
4:53 pm 16:53 Sunny 92 33.3 48 8.9 22 22 S 21 33 29.73 1007 10 16 0.00 0.00
5:53 pm 17:53 Sunny 91 32.8 51 10.6 26 26 SSE 26 43 29.72 1007 10 16 0.00 0.00
6:53 pm 18:53 Sunny 90 32.2 50 10 25 25 SSE 29 46 29.72 1006 10 16 0.00 0.00
7:53 pm 19:53 Sunny 87 30.6 49 9.4 27 27 SSE 24 39 29.74 1007 10 16 0.00 0.00
8:53 pm 20:53 Clear 85 29.4 48 8.9 28 28 SSW 10 17 29.78 1008 10 16 0.00 0.00
9:53 pm 21:53 Clear 82 27.8 47 8.3 29 29 SSW 10 17 29.80 1009 10 16 0.00 0.00
10:53 pm 22:53 Clear 79 26.1 51 10.6 38 38 S 9 15 29.83 1010 10 16 0.00 0.00
11:53 pm 23:53 Clear 76 24.4 52 11.1 43 43 SSE 14 22 29.84 1011 10 16 0.00 0.00

Powered by AerisWeather